www.pogodaiklimat.ru

Погода и климат >> Архив погоды >> Россия >> Чукотка >> Мыс Ванкарем


ПОГОДА на Мысе Ванкарем

  • Прогноз погоды на Мысе Ванкарем
  • Монитор погоды на Мысе Ванкарем
  • Климат города

АРХИВ ПОГОДЫ на Мысе Ванкарем

Время (UTC), дата Ветер
(напр.,м/с)
 
Видим.   Явления Облачность Т
(С)
Тd
(С)
f
(%)
Тe
(С)
Тes
(С)
Комфортность P
(гПа)
Po
(гПа)
Тmin
(С)
Tmax
(С)
R
(мм)
R24
(мм)
S
(см)
06 17.05 С 2
{4}
20 км {туман} 10/10 600 м
[Sc]
+0.9 -2.0 81 -2 -2 1009.2 1008.6 +3.5
09 17.05 С 2
{4}
20 км 10/10 600 м
[Sc]
+0.2 -2.4 83 -3 -3 1010.0 1009.4
12 17.05 С 1
{3}
10 км 10/10 600 м
[Sc]
-2.4 -4.6 85 -5 -5 1010.9 1010.3
15 17.05 С 2
{4}
10 км 10/10 600 м
[Sc]
-3.2 -5.6 83 -7 -7 1012.0 1011.4
18 17.05 С 2
{4}
10 км 10/10 600 м
[Sc]
-3.0 -5.4 83 -7 -7 1012.9 1012.3 -4.6
21 17.05 штиль 0
{3}
20 км 10/10 600 м
[Sc]
-1.0 -3.9 81 -2 -2 1012.2 1011.6
00 18.05 СЗ 2
{4}
20 км 10/10 600 м
[Sc]
+1.7 -1.1 82 -2 -2 1012.4 1011.8
03 18.05 СЗ 2
{4}
20 км 10/10 600 м
[Sc]
+1.7 -1.1 82 -2 -2 1012.4 1011.8
06 18.05 СЗ 1
{3}
20 км 10/10 600 м
[Sc]
+1.9 -0.9 82 0 0 1012.6 1012.0
09 18.05 С 1
{2}
10 км 10/10 600 м
[Sc]
-0.5 -2.9 84 -3 -3 1012.7 1012.1
12 18.05 З 1
{2}
10 км 10/10 600 м
[Sc]
-3.3 -6.5 78 -5 -5 1012.9 1012.3
15 18.05 З 1
{3}
10 км 10/10 600 м
[Sc]
-3.7 -6.6 80 -6 -6 1013.0 1012.4
18 18.05 З 1
{2}
10 км 10/10 600 м
[Sc]
-3.0 -6.4 77 -5 -5 1013.3 1012.7 -4.8
21 18.05 В 1
{3}
500 м туман 10/10 600 м
[Sc]
-1.8 -1.8 100 -4 -4 1013.6 1013.0
00 19.05 ЮВ 1
{2}
10 км {туман} 9/9 600 м
[Sc]
+1.6 -1.2 82 -0 +1 1013.4 1012.8
03 19.05 ЮВ 2
{4}
10 км 9/9 600 м
[Sc]
+2.3 -0.2 84 -1 -0 1013.4 1012.8
06 19.05 В 2
{4}
10 км 10/10 600 м
[Sc]
+2.0 -1.1 80 -1 -1 1013.5 1012.9 +3.0
09 19.05 В 1
{3}
10 км 10/10 600 м
[Sc]
+0.2 -3.1 78 -2 -2 1013.6 1013.0
12 19.05 ЮВ 1
{2}
200 м туман ?/? -3.2 -3.2 100 -6 -6 1013.8 1013.2
15 19.05 В 1
{2}
200 м туман ?/? -4.4 -4.4 100 -7 -7 1013.9 1013.3
18 19.05 ЮВ 1
{2}
200 м туман ?/? -3.0 -3.0 100 -6 -6 1014.2 1013.6 -5.5
21 19.05 В 3
{5}
200 м туман ?/? -1.0 -1.0 100 -6 -6 1013.7 1013.1
00 20.05 ЮВ 3
{5}
20 км {туман} 9/8 600 м
[Sc Ac trans]
+0.5 -1.8 85 -4 -3 1013.6 1013.0
03 20.05 В 4
{6}
10 км 10/10 600 м
[Sc]
+1.7 -1.1 82 -3 -3 1013.5 1012.9
06 20.05 В 2
{5}
10 км 10/10 600 м
[Sc]
+1.3 -1.6 81 -2 -2 1013.4 1012.8 +3.0
09 20.05 В 3
{5}
10 км 10/10 600 м
[Sc]
-3.1 -5.9 81 -8 -8 1013.6 1013.0
12 20.05 В 2
{4}
10 км {снег} 10/10 600 м
[Sc]
-4.0 -6.6 82 -8 -8 1013.9 1013.3
15 20.05 ЮВ 2
{4}
10 км {снег} 10/10 600 м
[Sc]
-4.6 -7.3 81 -9 -9 1014.3 1013.7
18 20.05 В 3
{5}
10 км {снег} 10/10 600 м
[Sc]
-3.5 -6.0 83 -9 -9 1014.3 1013.7 -4.8 0.3
21 20.05 В 3
{5}
10 км 10/10 600 м
[Sc]
-1.2 -3.8 82 -6 -6 1014.3 1013.7
00 21.05 В 4
{6}
10 км 10/8 600 м
[Sc Ac und]
+0.9 -2.3 79 -4 -4 1014.2 1013.6
03 21.05 В 3
{5}
10 км {снег} 10/9 600 м
[Sc Ac und]
+1.7 -0.8 83 -3 -2 1013.2 1012.6
06 21.05 В 3
{6}
10 км {снег} 10/10 600 м
[Sc]
+1.0 -1.6 83 -3 -3 1012.3 1011.7 +2.5 0.4
09 21.05 В 4
{6}
10 км 10/10 600 м
[Sc]
-0.5 -3.6 80 -6 -6 1011.6 1011.0
12 21.05 В 3
{5}
20 км 10/0
[Ac und]
-2.9 -6.3 77 -8 -8 1012.0 1011.4
15 21.05 В 3
{5}
20 км 10/0
[Ac und]
-4.4 -8.3 74 -10 -10 1012.2 1011.6
18 21.05 В 4
{6}
20 км 10/5 600 м
[Sc Ac und]
-3.7 -6.6 80 -10 -10 1012.6 1012.0 -4.8
21 21.05 СВ 4
{6}
20 км 10/8 600 м
[Sc Ac und]
-1.3 -4.2 81 -7 -7 1011.6 1011.0
00 22.05 С 5
{7}
20 км 9/0
[Ac trans]
-0.2 -3.8 77 -6 -4 1011.1 1010.5
03 22.05 С 5
{8}
20 км 9/4 600 м
[Sc Ac trans]
-0.8 -4.3 77 -7 -6 1011.3 1010.7
06 22.05 С 5
{8}
10 км 9/8 200 м
[Sc Ac trans]
-2.0 -5.1 79 -8 -8 1011.3 1010.7 0.0
09 22.05 С 3
{6}
20 км 10/10 600 м
[Sc]
-3.7 -7.4 75 -9 -9 1012.4 1011.8
12 22.05 С 3
{5}
20 км 10/0
[Ac und]
-4.3 -7.4 79 -10 -10 1012.8 1012.2
15 22.05 С 3
{6}
20 км 10/0
[Ac und]
-5.2 -8.9 75 -11 -10 1013.3 1012.7
18 22.05 С 3
{6}
20 км 10/0
[Ac und]
-4.8 -8.0 78 -10 -9 1013.5 1012.9 -6.5
21 22.05 С 5
{8}
10 км 10/10 600 м
[Sc]
-2.9 -6.0 79 -10 -10 1013.8 1013.2
00 23.05 С 5
{8}
10 км 10/10 600 м
[Sc]
-0.7 -3.8 80 -7 -7 1014.2 1013.6
03 23.05 С 6
{9}
10 км 10/10 600 м
[Sc]
-0.3 -3.6 78 -7 -7 1013.8 1013.2
06 23.05 С 5
{8}
10 км 9/9 600 м
[Sc]
-1.9 -4.7 81 -8 -8 1013.6 1013.0 +0.2
09 23.05 С 6
{9}
20 км 10/10 600 м
[Sc]
-4.1 -7.9 75 -12 -12 1013.8 1013.2
12 23.05 С 7
{10}
10 км 10/10 600 м
[Sc]
-6.0 -9.1 79 -14 -14 1013.6 1013.0
15 23.05 С 6
{9}
10 км 10/10 600 м
[Sc]
-7.8 -10.9 78 -16 -16 1013.4 1012.8
18 23.05 С 6
{9}
20 км 10/10 600 м
[Sc]
-5.2 -8.1 80 -13 -13 1013.3 1012.7 -7.8
21 23.05 С 8
{11}
20 км 10/8 600 м
[Sc Ac und]
-3.9 -7.2 78 -12 -12 1013.1 1012.5
00 24.05 С 6
{10}
10 км {снег} 10/8 600 м
[Sc Ac und]
-1.2 -3.8 82 -8 -8 1013.2 1012.6
03 24.05 С 6
{9}
10 км {снег} 10/10 600 м
[Sc]
-0.7 -3.2 83 -7 -7 1013.4 1012.8

 

Местоположение метеостанции Мыс Ванкарем (Чукотка, Россия): широта 67.83 долгота -175.00 высота над уровнем моря 5 м.

В архиве по умолчанию представлена погода на Мысе Ванкарем за последнюю неделю. Архивные данные за месяц целиком и за предыдущие месяцы, начиная с января 2011 года, Вы можете получить, выбрав интересующий диапазон дат из раскрывающегося списка и нажав кнопку "Ввод!".

Внимание! Время в таблицах - всемирное. Для получения местного времени необходимо прибавить поправку, которая на Мысе Ванкарем равна 12 ч.

Смотрите также архив погоды в соседних городах и на ближайших метеорологических станциях:

Погода в Эгвекиноте (Чукотка, Россия) (239 км)
Погода в Уэлене (Чукотка, Россия) (320 км)
Погода на Острове Врангеля (Чукотка, Россия) (369 км)

Пояснения к столбцам:

Ветер - указаны скорость ветра в м/с - средняя за 10 мин, порывы в срок и между сроками (в фигурных скобках) и направление, откуда дует ветер: С - северный, СВ - северо-восточный, В - восточный, ЮВ - юго-восточный, Ю - южный, ЮЗ - юго-западный, З - западный, СЗ - северо-западный.
Видимость - горизонтальная дальность видимости в метрах или километрах. При видимости от 1 до 10 км при отсутствии осадков обычно наблюдается дымка, при ухудшении видимости до 1 км и менее - туман. В сухую погоду видимость может ухудшаться дымом, пылью или мглою.
Явления - указаны атмосферные явления, наблюдавшиеся в срок или в последний час перед сроком; фигурными скобками обозначены явления, наблюдавшиеся между сроками (за 1-3 часа до срока); квадратными скобками обозначены град или гололедные отложения с указанием их диаметра в мм.
Облачность - указаны через наклонную черту общая и нижняя облачность в баллах и высота нижней границы облаков в метрах; квадратными скобками обозначены формы облаков: Ci - перистые, Cs - перисто-слоистые, Cc - перисто-кучевые, Ac - высококучевые, As - высокослоистые, Sc - слоисто-кучевые, Ns - слоисто-дождевые, Cu - кучевые, Cb - кучево-дождевые. Подробнее классификацию облаков см. в Атласе облаков (PDF).
T - Температура воздуха - температура, измеренная на высоте 2 м над землей.
Td - Температура точки росы - температура, при понижении до которой содержащийся в воздухе водяной пар достигнет насыщения.
f - Относительная влажность воздуха - влажноcть воздуха, измеренная на высоте 2 м над землей.
Te - Эффективная температура - температура, которую ощущает одетый по сезону человек в тени. Характеристика душности погоды. При расчете учитывается влияние влажности воздуха и скорости ветра на теплоощущения человека.
Tes - Эффективная температура на солнце - температура, которую ощущает человек, с поправкой на солнечный нагрев. Характеристика знойности погоды. Зависит от высоты солнца над горизонтом, облачности и скорости ветра. Ночью, в пасмурную погоду, а также при ветре 12 м/с и более поправка равна нулю.
P - Атмосферное давление - приведенное к уровню моря атмосферное давление.
Po - Атмосферное давление - измеренное на уровне метеостанции атмосферное давление.
Tmin - Минимальная температура - минимум температуры воздуха на высоте 2 м над землей.
Tmax - Максимальная температура - максимум температуры воздуха на высоте 2 м над землей.
R - Количество осадков - Количество выпавших осадков за период времени, мм. При наведении курсора мыши на число - период времени, за который выпало указанное количество осадков.
R24 - Количество осадков - Количество выпавших осадков за 24 часа, мм.
S - Снежный покров - Высота снежного покрова, см. При наведении курсора мыши на число - состояние снежного покрова и степень покрытия местности в баллах.